Time,TemperatureF,DewpointF,PressureIn,WindDirection,WindDirectionDegrees,WindSpeedMPH,WindSpeedGustMPH,Humidity,HourlyPrecipIn,Conditions,Clouds,dailyrainin,SoftwareType,DateUTC
2013-04-27 00:03:00,57.0,38.0,30.35,NW,326,0.0,-999.0,49,-99.99,,,-99.99,,2013-04-27 04:03:00,
2013-04-27 00:13:00,57.0,38.0,30.35,NW,326,0.0,-999.0,49,-99.99,,,-99.99,,2013-04-27 04:13:00,
2013-04-27 00:23:00,58.0,39.0,30.36,NW,326,0.0,-999.0,49,-99.99,,,-99.99,,2013-04-27 04:23:00,
2013-04-27 00:33:00,57.0,40.0,30.36,NW,326,0.0,-999.0,53,-99.99,,,-99.99,,2013-04-27 04:33:00,
2013-04-27 00:43:00,57.0,40.0,30.36,NW,326,0.0,-999.0,53,-99.99,,,-99.99,,2013-04-27 04:43:00,
2013-04-27 00:52:00,57.0,39.0,30.35,NW,326,0.0,-999.0,51,-99.99,,,-99.99,,2013-04-27 04:52:00,
2013-04-27 01:02:00,57.0,39.0,30.35,NW,326,0.0,-999.0,50,-99.99,,,-99.99,,2013-04-27 05:02:00,
2013-04-27 01:12:00,57.0,39.0,30.35,NW,326,0.0,-999.0,50,-99.99,,,-99.99,,2013-04-27 05:12:00,
2013-04-27 01:22:00,57.0,39.0,30.35,NW,326,0.0,-999.0,50,-99.99,,,-99.99,,2013-04-27 05:22:00,
2013-04-27 01:32:00,56.0,40.0,30.35,NW,326,0.0,-999.0,54,-99.99,,,-99.99,,2013-04-27 05:32:00,
2013-04-27 01:42:00,56.0,40.0,30.35,NW,326,0.0,-999.0,54,-99.99,,,-99.99,,2013-04-27 05:42:00,
2013-04-27 01:52:00,57.0,39.0,30.35,NW,326,0.0,-999.0,51,-99.99,,,-99.99,,2013-04-27 05:52:00,
2013-04-27 02:02:00,57.0,41.0,30.36,NW,326,0.0,-999.0,56,-99.99,,,-99.99,,2013-04-27 06:02:00,
2013-04-27 02:12:00,57.0,41.0,30.36,NW,326,0.0,-999.0,56,-99.99,,,-99.99,,2013-04-27 06:12:00,
2013-04-27 02:22:00,55.0,41.0,30.36,South,182,0.0,-999.0,58,-99.99,,,-99.99,,2013-04-27 06:22:00,
2013-04-27 02:32:00,54.0,40.0,30.35,South,182,0.0,-999.0,59,-99.99,,,-99.99,,2013-04-27 06:32:00,
2013-04-27 02:42:00,54.0,40.0,30.35,South,182,0.0,-999.0,59,-99.99,,,-99.99,,2013-04-27 06:42:00,
2013-04-27 02:52:00,54.0,41.0,30.35,South,182,0.0,-999.0,61,-99.99,,,-99.99,,2013-04-27 06:52:00,
2013-04-27 03:02:00,54.0,41.0,30.35,South,182,0.0,-999.0,62,-99.99,,,-99.99,,2013-04-27 07:02:00,
2013-04-27 03:11:00,54.0,41.0,30.35,South,182,0.0,-999.0,62,-99.99,,,-99.99,,2013-04-27 07:11:00,
2013-04-27 03:21:00,53.0,40.0,30.34,South,182,0.0,-999.0,62,-99.99,,,-99.99,,2013-04-27 07:21:00,
2013-04-27 03:32:00,53.0,39.0,30.32,South,182,0.0,-999.0,58,-99.99,,,-99.99,,2013-04-27 07:32:00,
2013-04-27 03:42:00,53.0,39.0,30.32,South,182,0.0,-999.0,58,-99.99,,,-99.99,,2013-04-27 07:42:00,
2013-04-27 03:52:00,54.0,41.0,30.32,South,182,0.0,-999.0,62,-99.99,,,-99.99,,2013-04-27 07:52:00,
2013-04-27 04:02:00,54.0,39.0,30.31,South,182,0.0,-999.0,57,-99.99,,,-99.99,,2013-04-27 08:02:00,
2013-04-27 04:11:00,54.0,39.0,30.31,South,182,0.0,-999.0,57,-99.99,,,-99.99,,2013-04-27 08:11:00,
2013-04-27 04:21:00,54.0,40.0,30.32,South,182,0.0,-999.0,59,-99.99,,,-99.99,,2013-04-27 08:21:00,
2013-04-27 04:33:00,54.0,39.0,30.31,South,182,0.0,-999.0,57,-99.99,,,-99.99,,2013-04-27 08:33:00,
2013-04-27 04:42:00,54.0,39.0,30.31,South,182,0.0,-999.0,57,-99.99,,,-99.99,,2013-04-27 08:42:00,
2013-04-27 04:51:00,54.0,42.0,30.31,South,182,0.0,-999.0,63,-99.99,,,-99.99,,2013-04-27 08:51:00,
2013-04-27 05:01:00,53.0,40.0,30.32,South,182,0.0,-999.0,61,-99.99,,,-99.99,,2013-04-27 09:01:00,
2013-04-27 05:11:00,53.0,40.0,30.32,South,182,0.0,-999.0,61,-99.99,,,-99.99,,2013-04-27 09:11:00,
2013-04-27 05:22:00,53.0,39.0,30.32,South,182,0.0,-999.0,60,-99.99,,,-99.99,,2013-04-27 09:22:00,
2013-04-27 05:33:00,53.0,39.0,30.32,South,182,0.0,-999.0,60,-99.99,,,-99.99,,2013-04-27 09:33:00,
2013-04-27 05:42:00,53.0,39.0,30.32,South,182,0.0,-999.0,60,-99.99,,,-99.99,,2013-04-27 09:42:00,
2013-04-27 05:53:00,53.0,41.0,30.32,South,182,0.0,-999.0,64,-99.99,,,-99.99,,2013-04-27 09:53:00,
2013-04-27 06:03:00,53.0,42.0,30.32,South,182,0.0,-999.0,66,-99.99,,,-99.99,,2013-04-27 10:03:00,
2013-04-27 06:12:00,53.0,42.0,30.32,South,182,0.0,-999.0,66,-99.99,,,-99.99,,2013-04-27 10:12:00,
2013-04-27 06:22:00,53.0,43.0,30.33,South,182,0.0,-999.0,69,-99.99,,,-99.99,,2013-04-27 10:22:00,
2013-04-27 06:33:00,51.0,41.0,30.33,South,182,0.0,-999.0,69,-99.99,,,-99.99,,2013-04-27 10:33:00,
2013-04-27 06:42:00,51.0,41.0,30.33,South,182,0.0,-999.0,69,-99.99,,,-99.99,,2013-04-27 10:42:00,
2013-04-27 06:52:00,52.0,41.0,30.32,South,182,0.0,-999.0,67,-99.99,,,-99.99,,2013-04-27 10:52:00,
2013-04-27 07:02:00,52.0,40.0,30.33,South,182,0.0,-999.0,63,-99.99,,,-99.99,,2013-04-27 11:02:00,
2013-04-27 07:12:00,52.0,40.0,30.34,SW,227,0.0,-999.0,64,-99.99,,,-99.99,,2013-04-27 11:12:00,
2013-04-27 07:22:00,52.0,40.0,30.34,SW,227,0.0,-999.0,64,-99.99,,,-99.99,,2013-04-27 11:22:00,
2013-04-27 07:32:00,52.0,40.0,30.34,SW,227,0.0,-999.0,64,-99.99,,,-99.99,,2013-04-27 11:32:00,
2013-04-27 07:42:00,52.0,40.0,30.34,SW,227,0.0,-999.0,64,-99.99,,,-99.99,,2013-04-27 11:42:00,
2013-04-27 07:52:00,52.0,40.0,30.33,SW,227,0.0,-999.0,64,-99.99,,,-99.99,,2013-04-27 11:52:00,
2013-04-27 08:01:00,53.0,42.0,30.33,SW,227,0.0,-999.0,65,-99.99,,,-99.99,,2013-04-27 12:01:00,
2013-04-27 08:11:00,53.0,42.0,30.33,SW,227,0.0,-999.0,65,-99.99,,,-99.99,,2013-04-27 12:11:00,
2013-04-27 08:22:00,53.0,42.0,30.33,SW,227,0.0,-999.0,65,-99.99,,,-99.99,,2013-04-27 12:22:00,
2013-04-27 08:32:00,53.0,42.0,30.34,SW,227,0.0,-999.0,66,-99.99,,,-99.99,,2013-04-27 12:32:00,
2013-04-27 08:42:00,53.0,42.0,30.34,SW,227,0.0,-999.0,66,-99.99,,,-99.99,,2013-04-27 12:42:00,
2013-04-27 08:52:00,53.0,42.0,30.34,SW,227,0.0,-999.0,67,-99.99,,,-99.99,,2013-04-27 12:52:00,
2013-04-27 09:02:00,53.0,43.0,30.34,SW,227,0.0,-999.0,68,-99.99,,,-99.99,,2013-04-27 13:02:00,
2013-04-27 09:12:00,53.0,43.0,30.34,SW,227,0.0,-999.0,68,-99.99,,,-99.99,,2013-04-27 13:12:00,
2013-04-27 09:22:00,53.0,44.0,30.33,South,188,0.0,-999.0,72,-99.99,,,-99.99,,2013-04-27 13:22:00,
2013-04-27 09:32:00,53.0,43.0,30.33,South,188,0.0,-999.0,70,-99.99,,,-99.99,,2013-04-27 13:32:00,
2013-04-27 09:42:00,53.0,43.0,30.33,South,188,0.0,-999.0,70,-99.99,,,-99.99,,2013-04-27 13:42:00,
2013-04-27 09:52:00,54.0,46.0,30.33,South,188,0.0,-999.0,73,-99.99,,,-99.99,,2013-04-27 13:52:00,
2013-04-27 10:02:00,55.0,44.0,30.33,South,188,0.0,-999.0,67,-99.99,,,-99.99,,2013-04-27 14:02:00,
2013-04-27 10:11:00,55.0,44.0,30.33,South,188,0.0,-999.0,67,-99.99,,,-99.99,,2013-04-27 14:11:00,
2013-04-27 10:21:00,56.0,45.0,30.34,South,184,0.0,-999.0,67,-99.99,,,-99.99,,2013-04-27 14:21:00,
2013-04-27 10:32:00,56.0,44.0,30.34,South,184,0.0,-999.0,65,-99.99,,,-99.99,,2013-04-27 14:32:00,
2013-04-27 10:42:00,56.0,44.0,30.34,South,184,0.0,-999.0,65,-99.99,,,-99.99,,2013-04-27 14:42:00,
2013-04-27 10:52:00,56.0,46.0,30.34,South,184,0.0,-999.0,68,-99.99,,,-99.99,,2013-04-27 14:52:00,
2013-04-27 11:01:00,56.0,44.0,30.33,South,184,0.0,-999.0,65,-99.99,,,-99.99,,2013-04-27 15:01:00,
2013-04-27 11:12:00,56.0,44.0,30.33,South,184,0.0,-999.0,65,-99.99,,,-99.99,,2013-04-27 15:12:00,
2013-04-27 11:22:00,57.0,45.0,30.33,South,184,0.0,-999.0,63,-99.99,,,-99.99,,2013-04-27 15:22:00,
2013-04-27 11:33:00,57.0,43.0,30.34,South,184,0.0,-999.0,59,-99.99,,,-99.99,,2013-04-27 15:33:00,
2013-04-27 11:43:00,57.0,43.0,30.34,South,184,0.0,-999.0,59,-99.99,,,-99.99,,2013-04-27 15:43:00,
2013-04-27 11:52:00,58.0,42.0,30.34,South,184,0.0,-999.0,56,-99.99,,,-99.99,,2013-04-27 15:52:00,
2013-04-27 12:03:00,59.0,44.0,30.34,South,184,0.0,-999.0,58,-99.99,,,-99.99,,2013-04-27 16:03:00,
2013-04-27 12:13:00,59.0,44.0,30.34,South,184,0.0,-999.0,58,-99.99,,,-99.99,,2013-04-27 16:13:00,
2013-04-27 12:22:00,59.0,44.0,30.33,South,184,0.0,-999.0,57,-99.99,,,-99.99,,2013-04-27 16:22:00,
2013-04-27 12:33:00,58.0,45.0,30.33,South,184,0.0,-999.0,62,-99.99,,,-99.99,,2013-04-27 16:33:00,
2013-04-27 12:42:00,58.0,45.0,30.33,South,184,0.0,-999.0,62,-99.99,,,-99.99,,2013-04-27 16:42:00,
2013-04-27 12:52:00,58.0,45.0,30.33,South,184,0.0,-999.0,61,-99.99,,,-99.99,,2013-04-27 16:52:00,
2013-04-27 13:02:00,59.0,45.0,30.33,South,184,0.0,-999.0,60,-99.99,,,-99.99,,2013-04-27 17:02:00,
2013-04-27 13:12:00,59.0,45.0,30.33,South,184,0.0,-999.0,60,-99.99,,,-99.99,,2013-04-27 17:12:00,
2013-04-27 13:22:00,59.0,47.0,30.32,South,184,0.0,-999.0,64,-99.99,,,-99.99,,2013-04-27 17:22:00,
2013-04-27 13:32:00,59.0,47.0,30.32,South,184,0.0,-999.0,64,-99.99,,,-99.99,,2013-04-27 17:32:00,
2013-04-27 13:42:00,59.0,47.0,30.32,South,184,0.0,-999.0,64,-99.99,,,-99.99,,2013-04-27 17:42:00,
2013-04-27 13:53:00,59.0,47.0,30.32,South,184,0.0,-999.0,64,-99.99,,,-99.99,,2013-04-27 17:53:00,
2013-04-27 14:02:00,59.0,48.0,30.32,South,184,0.0,-999.0,67,-99.99,,,-99.99,,2013-04-27 18:02:00,
2013-04-27 14:12:00,59.0,48.0,30.32,South,184,0.0,-999.0,67,-99.99,,,-99.99,,2013-04-27 18:12:00,
2013-04-27 14:22:00,58.0,49.0,30.32,South,184,0.0,-999.0,72,-99.99,,,-99.99,,2013-04-27 18:22:00,
2013-04-27 14:32:00,58.0,49.0,30.32,South,184,0.0,-999.0,73,-99.99,,,-99.99,,2013-04-27 18:32:00,
2013-04-27 14:42:00,58.0,49.0,30.32,South,184,0.0,-999.0,73,-99.99,,,-99.99,,2013-04-27 18:42:00,
2013-04-27 14:52:00,58.0,48.0,30.31,South,184,0.0,-999.0,70,-99.99,,,-99.99,,2013-04-27 18:52:00,
2013-04-27 15:02:00,58.0,48.0,30.32,South,184,0.0,-999.0,69,-99.99,,,-99.99,,2013-04-27 19:02:00,
2013-04-27 15:11:00,58.0,48.0,30.32,South,184,0.0,-999.0,69,-99.99,,,-99.99,,2013-04-27 19:11:00,
2013-04-27 15:22:00,58.0,49.0,30.32,South,184,0.0,-999.0,71,-99.99,,,-99.99,,2013-04-27 19:22:00,
2013-04-27 15:32:00,58.0,49.0,30.31,South,184,0.0,-999.0,71,-99.99,,,-99.99,,2013-04-27 19:32:00,
2013-04-27 15:42:00,58.0,49.0,30.31,South,184,0.0,-999.0,71,-99.99,,,-99.99,,2013-04-27 19:42:00,
2013-04-27 15:52:00,58.0,49.0,30.31,South,184,0.0,-999.0,73,-99.99,,,-99.99,,2013-04-27 19:52:00,
2013-04-27 16:02:00,58.0,50.0,30.30,South,184,0.0,-999.0,76,-99.99,,,-99.99,,2013-04-27 20:02:00,
2013-04-27 16:11:00,58.0,50.0,30.30,South,184,0.0,-999.0,76,-99.99,,,-99.99,,2013-04-27 20:11:00,
2013-04-27 16:22:00,58.0,51.0,30.30,South,184,0.0,-999.0,78,-99.99,,,-99.99,,2013-04-27 20:22:00,
2013-04-27 16:32:00,57.0,50.0,30.30,South,184,0.0,-999.0,78,-99.99,,,-99.99,,2013-04-27 20:32:00,
2013-04-27 16:42:00,57.0,50.0,30.30,South,184,0.0,-999.0,78,-99.99,,,-99.99,,2013-04-27 20:42:00,
2013-04-27 16:52:00,57.0,51.0,30.30,South,184,0.0,-999.0,81,-99.99,,,-99.99,,2013-04-27 20:52:00,
2013-04-27 17:02:00,57.0,52.0,30.30,South,184,0.0,-999.0,84,-99.99,,,-99.99,,2013-04-27 21:02:00,
2013-04-27 17:12:00,57.0,52.0,30.30,South,184,0.0,-999.0,84,-99.99,,,-99.99,,2013-04-27 21:12:00,
2013-04-27 17:21:00,56.0,52.0,30.30,South,184,0.0,-999.0,86,-99.99,,,-99.99,,2013-04-27 21:21:00,
2013-04-27 17:33:00,56.0,52.0,30.29,South,184,0.0,-999.0,87,-99.99,,,-99.99,,2013-04-27 21:33:00,
2013-04-27 17:43:00,56.0,52.0,30.29,South,184,0.0,-999.0,87,-99.99,,,-99.99,,2013-04-27 21:43:00,
2013-04-27 17:53:00,56.0,52.0,30.29,South,184,0.0,-999.0,88,-99.99,,,-99.99,,2013-04-27 21:53:00,
2013-04-27 18:03:00,55.0,52.0,30.29,South,184,0.0,-999.0,90,-99.99,,,-99.99,,2013-04-27 22:03:00,
2013-04-27 18:13:00,55.0,52.0,30.29,South,184,0.0,-999.0,90,-99.99,,,-99.99,,2013-04-27 22:13:00,
2013-04-27 18:23:00,55.0,52.0,30.27,South,184,0.0,-999.0,91,-99.99,,,-99.99,,2013-04-27 22:23:00,
2013-04-27 18:32:00,55.0,53.0,30.28,South,184,0.0,-999.0,92,-99.99,,,-99.99,,2013-04-27 22:32:00,
2013-04-27 18:42:00,55.0,53.0,30.28,South,184,0.0,-999.0,92,-99.99,,,-99.99,,2013-04-27 22:42:00,
2013-04-27 18:52:00,54.0,52.0,30.28,South,184,0.0,-999.0,92,-99.99,,,-99.99,,2013-04-27 22:52:00,
2013-04-27 19:02:00,54.0,52.0,30.28,South,184,0.0,-999.0,93,-99.99,,,-99.99,,2013-04-27 23:02:00,
2013-04-27 19:12:00,54.0,52.0,30.28,South,184,0.0,-999.0,93,-99.99,,,-99.99,,2013-04-27 23:12:00,
2013-04-27 19:22:00,54.0,52.0,30.28,WNW,298,0.0,-999.0,93,-99.99,,,-99.99,,2013-04-27 23:22:00,
2013-04-27 19:32:00,54.0,52.0,30.28,WNW,298,0.0,-999.0,93,-99.99,,,-99.99,,2013-04-27 23:32:00,
2013-04-27 19:42:00,54.0,52.0,30.28,WNW,298,0.0,-999.0,93,-99.99,,,-99.99,,2013-04-27 23:42:00,
2013-04-27 19:52:00,53.0,51.0,30.28,WNW,298,0.0,-999.0,94,-99.99,,,-99.99,,2013-04-27 23:52:00,
2013-04-27 20:01:00,53.0,51.0,30.27,WNW,298,0.0,-999.0,94,-99.99,,,-99.99,,2013-04-28 00:01:00,
2013-04-27 20:12:00,53.0,51.0,30.27,WNW,298,0.0,-999.0,94,-99.99,,,-99.99,,2013-04-28 00:12:00,
2013-04-27 20:21:00,53.0,51.0,30.27,WNW,298,0.0,-999.0,94,-99.99,,,-99.99,,2013-04-28 00:21:00,
2013-04-27 20:32:00,53.0,51.0,30.27,WNW,298,0.0,-999.0,94,-99.99,,,-99.99,,2013-04-28 00:32:00,
2013-04-27 20:43:00,53.0,51.0,30.27,WNW,298,0.0,-999.0,94,-99.99,,,-99.99,,2013-04-28 00:43:00,
2013-04-27 20:52:00,53.0,51.0,30.27,WNW,298,0.0,-999.0,94,-99.99,,,-99.99,,2013-04-28 00:52:00,
2013-04-27 21:02:00,53.0,52.0,30.27,West,272,0.0,-999.0,95,-99.99,,,-99.99,,2013-04-28 01:02:00,
2013-04-27 21:11:00,53.0,52.0,30.27,West,272,0.0,-999.0,95,-99.99,,,-99.99,,2013-04-28 01:11:00,
2013-04-27 21:22:00,53.0,52.0,30.27,West,272,0.0,-999.0,95,-99.99,,,-99.99,,2013-04-28 01:22:00,
2013-04-27 21:32:00,53.0,52.0,30.27,WSW,237,0.0,-999.0,95,-99.99,,,-99.99,,2013-04-28 01:32:00,
2013-04-27 21:42:00,53.0,52.0,30.27,WSW,237,0.0,-999.0,95,-99.99,,,-99.99,,2013-04-28 01:42:00,
2013-04-27 21:52:00,53.0,52.0,30.28,South,178,0.0,-999.0,95,-99.99,,,-99.99,,2013-04-28 01:52:00,
2013-04-27 22:02:00,52.0,51.0,30.28,SW,219,0.0,-999.0,95,-99.99,,,-99.99,,2013-04-28 02:02:00,
2013-04-27 22:12:00,52.0,51.0,30.28,SW,219,0.0,-999.0,95,-99.99,,,-99.99,,2013-04-28 02:12:00,
2013-04-27 22:22:00,52.0,51.0,30.28,SW,214,0.0,-999.0,95,-99.99,,,-99.99,,2013-04-28 02:22:00,
2013-04-27 22:32:00,52.0,51.0,30.28,SW,214,0.0,-999.0,95,-99.99,,,-99.99,,2013-04-28 02:32:00,
2013-04-27 22:42:00,52.0,51.0,30.28,SW,214,0.0,-999.0,95,-99.99,,,-99.99,,2013-04-28 02:42:00,
2013-04-27 22:52:00,51.0,50.0,30.28,SW,214,0.0,-999.0,95,-99.99,,,-99.99,,2013-04-28 02:52:00,
2013-04-27 23:01:00,51.0,50.0,30.29,SW,214,0.0,-999.0,95,-99.99,,,-99.99,,2013-04-28 03:01:00,
2013-04-27 23:11:00,51.0,50.0,30.29,SW,214,0.0,-999.0,95,-99.99,,,-99.99,,2013-04-28 03:11:00,
2013-04-27 23:21:00,51.0,50.0,30.28,SW,214,0.0,-999.0,95,-99.99,,,-99.99,,2013-04-28 03:21:00,
2013-04-27 23:33:00,51.0,50.0,30.27,SW,214,0.0,-999.0,95,-99.99,,,-99.99,,2013-04-28 03:33:00,
2013-04-27 23:43:00,51.0,50.0,30.27,SW,214,0.0,-999.0,95,-99.99,,,-99.99,,2013-04-28 03:43:00,
2013-04-27 23:53:00,51.0,50.0,30.27,SW,214,0.0,-999.0,96,-99.99,,,-99.99,,2013-04-28 03:53:00,